Satellite-Ground Cal/Val Region Overpasses Predictions

Prediction of Satellite NPP Overpassing Cal/Val Region: PacNW

Region Location: (Latitude: 10.00, Longitude: 139.50) to (Latitude: 22.70, Longitude: 165.60).

Table of predicted overpasses for the next 14.0 days since TLE Epoch: 8/20/2022
Interval Starting Time Starting Location Ending Time Ending Location
1 08/20/2022 15:24:41 ( 22.67, 153.85) 08/20/2022 15:28:16 ( 10.05, 150.85)
2 08/21/2022 02:33:46 ( 10.05, 161.37) 08/21/2022 02:37:21 ( 22.67, 158.36)
3 08/21/2022 15:05:39 ( 22.69, 158.61) 08/21/2022 15:09:15 ( 10.01, 155.59)
4 08/22/2022 02:15:24 ( 12.33, 165.60) 08/22/2022 02:18:20 ( 22.66, 163.12)
5 08/22/2022 03:56:15 ( 10.04, 140.75) 08/22/2022 03:57:46 ( 15.38, 139.51)
6 08/22/2022 14:46:38 ( 22.70, 163.37) 08/22/2022 14:50:14 ( 10.02, 160.35)
7 08/23/2022 03:37:13 ( 10.03, 145.51) 08/23/2022 03:40:48 ( 22.65, 142.50)
8 08/23/2022 14:30:36 ( 12.14, 165.59) 08/23/2022 14:31:12 ( 10.03, 165.11)
9 08/23/2022 16:09:07 ( 22.65, 142.74) 08/23/2022 16:12:42 ( 10.03, 139.73)
10 08/24/2022 03:18:12 ( 10.02, 150.26) 08/24/2022 03:21:48 ( 22.70, 147.25)
11 08/24/2022 15:50:06 ( 22.66, 147.49) 08/24/2022 15:53:41 ( 10.04, 144.49)
12 08/25/2022 02:59:11 ( 10.01, 155.02) 08/25/2022 03:02:47 ( 22.69, 152.01)
13 08/25/2022 15:31:04 ( 22.67, 152.25) 08/25/2022 15:34:39 ( 10.05, 149.25)
14 08/26/2022 02:40:10 ( 10.05, 159.77) 08/26/2022 02:43:45 ( 22.68, 156.76)
15 08/26/2022 15:12:03 ( 22.68, 157.01) 08/26/2022 15:15:38 ( 10.06, 154.01)
16 08/27/2022 02:21:09 ( 10.05, 164.53) 08/27/2022 02:24:44 ( 22.67, 161.52)
17 08/27/2022 14:53:01 ( 22.69, 161.77) 08/27/2022 14:56:37 ( 10.01, 158.75)
18 08/28/2022 03:43:37 ( 10.04, 143.91) 08/28/2022 03:47:12 ( 22.66, 140.90)
19 08/28/2022 14:35:05 ( 18.88, 165.59) 08/28/2022 14:37:36 ( 10.02, 163.51)
20 08/28/2022 16:15:30 ( 22.69, 141.15) 08/28/2022 16:17:25 ( 15.95, 139.51)
21 08/29/2022 03:24:36 ( 10.03, 148.67) 08/29/2022 03:28:11 ( 22.66, 145.66)
22 08/29/2022 15:56:29 ( 22.64, 145.90) 08/29/2022 16:00:04 ( 10.02, 142.89)
23 08/30/2022 03:05:34 ( 10.03, 153.42) 08/30/2022 03:09:09 ( 22.65, 150.42)
24 08/30/2022 15:37:28 ( 22.65, 150.65) 08/30/2022 15:41:03 ( 10.03, 147.65)
25 08/31/2022 02:46:33 ( 10.02, 158.18) 08/31/2022 02:50:08 ( 22.64, 155.18)
26 08/31/2022 15:18:26 ( 22.66, 155.41) 08/31/2022 15:22:01 ( 10.04, 152.41)
27 09/01/2022 02:27:31 ( 10.01, 162.94) 09/01/2022 02:31:07 ( 22.69, 159.92)
28 09/01/2022 14:59:25 ( 22.66, 160.17) 09/01/2022 15:03:00 ( 10.04, 157.17)
29 09/02/2022 02:11:03 ( 18.99, 165.59) 09/02/2022 02:12:06 ( 22.69, 164.68)
30 09/02/2022 03:50:00 ( 10.01, 142.32) 09/02/2022 03:53:22 ( 21.87, 139.51)
31 09/02/2022 14:40:24 ( 22.67, 164.93) 09/02/2022 14:43:59 ( 10.05, 161.92)
